FW7906 Weather Reports


time (UTC)temp
C
wind
direction
speed
KPH
gust
KPH
rain 1hr
cm
rain 24hr
cm
rain mn
cm
humidity
%
barometer
mb
20260507213404 21 195 1.6 3.2 0.00 0.00 0.00 35 1008.8
20260507212901 20 106 0.0 3.2 0.00 0.00 0.00 41 1008.6
20260507212357 20 146 0.0 3.2 0.00 0.00 0.00 42 1008.5
20260507211854 20 148 4.8 4.8 0.00 0.00 0.00 41 1008.5
20260507211350 20 166 1.6 4.8 0.00 0.00 0.00 41 1008.5
20260507210848 20 174 0.0 4.8 0.00 0.00 0.00 42 1008.7
20260507210344 20 114 4.8 8.0 0.00 0.00 0.00 40 1008.6
20260507205841 20 53 8.0 11.3 0.00 0.00 0.00 42 1008.7
20260507205338 20 123 4.8 8.0 0.00 0.00 0.00 41 1008.6
20260507204834 20 153 3.2 4.8 0.00 0.00 0.00 40 1008.7
20260507204331 20 168 1.6 3.2 0.00 0.00 0.00 38 1008.6
20260507203829 20 159 0.0 0.0 0.00 0.00 0.00 38 1008.8
20260507203327 20 159 1.6 3.2 0.00 0.00 0.00 40 1008.8
20260507202823 19 192 0.0 3.2 0.00 0.00 0.00 46 1008.8
20260507202319 19 6 6.4 8.0 0.00 0.00 0.00 45 1008.9
20260507201815 19 91 6.4 11.3 0.00 0.00 0.00 42 1008.8
20260507201311 19 97 8.0 12.9 0.00 0.00 0.00 41 1008.9
20260507200807 20 192 4.8 8.0 0.00 0.00 0.00 42 1008.9
20260507200303 20 67 6.4 11.3 0.00 0.00 0.00 41 1008.7
20260507195759 20 179 8.0 11.3 0.00 0.00 0.00 40 1008.9
20260507195257 20 169 1.6 3.2 0.00 0.00 0.00 42 1009.3
20260507194754 19 119 4.8 11.3 0.00 0.00 0.00 47 1009.3
20260507194250 20 93 6.4 8.0 0.00 0.00 0.00 42 1009.0
20260507193747 20 114 4.8 4.8 0.00 0.00 0.00 43 1009.2
20260507193244 20 166 4.8 12.9 0.00 0.00 0.00 41 1009.5
20260507192740 20 179 8.0 11.3 0.00 0.00 0.00 40 1009.5
20260507192236 21 209 3.2 11.3 0.00 0.00 0.00 39 1009.6
20260507191732 21 226 3.2 8.0 0.00 0.00 0.00 36 1009.6
20260507191230 21 196 8.0 11.3 0.00 0.00 0.00 38 1009.4
20260507190726 20 155 6.4 11.3 0.00 0.00 0.00 38 1009.5
20260507190225 21 162 3.2 11.3 0.00 0.00 0.00 39 1009.7
20260507185723 21 231 9.7 11.3 0.00 0.00 0.00 40 1009.9
20260507185219 21 199 3.2 8.0 0.00 0.00 0.00 40 1010.1
20260507184717 21 201 11.3 12.9 0.00 0.00 0.00 38 1010.0
20260507184210 21 272 6.4 8.0 0.00 0.00 0.00 37 1009.9
20260507183706 21 257 0.0 4.8 0.00 0.00 0.00 39 1010.1
20260507183203 20 269 3.2 11.3 0.00 0.00 0.00 43 1010.0
20260507182700 20 117 3.2 8.0 0.00 0.00 0.00 46 1010.0
20260507182155 20 83 3.2 11.3 0.00 0.00 0.00 40 1010.2
20260507181652 20 201 4.8 8.0 0.00 0.00 0.00 41 1010.2
20260507181148 19 316 4.8 8.0 0.00 0.00 0.00 43 1010.6
20260507180639 19 230 8.0 17.7 0.00 0.00 0.00 40 1010.4
20260507180136 20 245 8.0 16.1 0.00 0.00 0.00 40 1010.5
20260507175632 19 234 3.2 8.0 0.00 0.00 0.00 40 1010.5
20260507175129 20 196 4.8 8.0 0.00 0.00 0.00 43 1010.6
20260507174626 19 183 8.0 11.3 0.00 0.00 0.00 44 1010.8
20260507174124 20 185 11.3 16.1 0.00 0.00 0.00 41 1011.0
20260507173621 20 177 1.6 11.3 0.00 0.00 0.00 42 1011.0
20260507173118 18 184 3.2 4.8 0.00 0.00 0.00 40 1010.9
20260507172614 18 198 4.8 16.1 0.00 0.00 0.00 42 1011.1
20260507172112 18 316 11.3 12.9 0.00 0.00 0.00 42 1011.2
20260507171606 19 177 1.6 4.8 0.00 0.00 0.00 42 1011.3
20260507171104 18 247 4.8 12.9 0.00 0.00 0.00 42 1011.2
20260507170601 18 288 6.4 16.1 0.00 0.00 0.00 41 1011.4
20260507170058 17 352 4.8 17.7 0.00 0.00 0.00 43 1011.3
20260507165553 17 329 11.3 16.1 0.00 0.00 0.00 43 1011.7
20260507165050 17 118 6.4 8.0 0.00 0.00 0.00 46 1011.7
20260507164547 17 57 1.6 12.9 0.00 0.00 0.00 43 1012.0
20260507164043 17 322 11.3 17.7 0.00 0.00 0.00 42 1011.8
20260507163540 17 300 14.5 17.7 0.00 0.00 0.00 42 1012.1
20260507163038 18 168 1.6 11.3 0.00 0.00 0.00 43 1012.1
20260507162538 17 280 8.0 12.9 0.00 0.00 0.00 42 1012.2
20260507162036 17 163 3.2 4.8 0.00 0.00 0.00 45 1012.3
20260507161532 17 299 3.2 12.9 0.00 0.00 0.00 43 1012.5
20260507161029 16 61 3.2 12.9 0.00 0.00 0.00 45 1012.7
20260507160525 16 150 4.8 12.9 0.00 0.00 0.00 45 1012.6
20260507160021 16 79 8.0 16.1 0.00 0.00 0.00 46 1012.7
20260507155516 16 43 8.0 12.9 0.00 0.00 0.00 45 1012.8
20260507155014 17 7 4.8 11.3 0.00 0.00 0.00 43 1012.9
20260507154511 16 320 4.8 8.0 0.00 0.00 0.00 45 1013.0
20260507154009 16 310 6.4 16.1 0.00 0.00 0.00 42 1013.0
20260507153505 16 107 1.6 4.8 0.00 0.00 0.00 43 1012.9
20260507153000 16 308 4.8 8.0 0.00 0.00 0.00 43 1013.1
20260507152457 15 258 4.8 11.3 0.00 0.00 0.00 44 1013.3
20260507151953 15 193 3.2 11.3 0.00 0.00 0.00 43 1013.3
20260507151449 15 77 11.3 16.1 0.00 0.00 0.00 45 1013.6
20260507150946 15 101 3.2 12.9 0.00 0.00 0.00 44 1013.3
20260507150443 15 9 17.7 20.9 0.00 0.00 0.00 44 1013.4
20260507145940 15 280 4.8 11.3 0.00 0.00 0.00 44 1013.5
20260507145435 15 93 4.8 8.0 0.00 0.00 0.00 49 1013.7
20260507144932 14 148 0.0 12.9 0.00 0.00 0.00 49 1013.8
20260507144429 14 80 17.7 20.9 0.00 0.00 0.00 46 1013.9
20260507143927 13 77 4.8 16.1 0.00 0.00 0.00 48 1013.9
20260507143424 14 98 3.2 11.3 0.00 0.00 0.00 48 1014.1
20260507142920 14 317 9.7 17.7 0.00 0.00 0.00 48 1014.2
20260507142416 13 60 1.6 11.3 0.00 0.00 0.00 51 1014.1
20260507141913 13 39 8.0 12.9 0.00 0.00 0.00 52 1014.1
20260507141409 13 350 6.4 11.3 0.00 0.00 0.00 51 1014.3
20260507140906 13 323 8.0 16.1 0.00 0.00 0.00 53 1014.4
20260507140403 13 317 4.8 11.3 0.00 0.00 0.00 53 1014.7
20260507135901 13 353 11.3 12.9 0.00 0.00 0.00 53 1014.4
20260507135357 13 271 3.2 8.0 0.00 0.00 0.00 53 1014.5
20260507134855 12 93 3.2 8.0 0.00 0.00 0.00 55 1014.7
20260507134351 12 100 9.7 12.9 0.00 0.00 0.00 55 1014.8
20260507133847 12 287 8.0 11.3 0.00 0.00 0.00 56 1014.7
20260507133342 12 26 3.2 8.0 0.00 0.00 0.00 57 1014.8
20260507132842 12 346 4.8 11.3 0.00 0.00 0.00 58 1014.9
20260507132337 12 324 8.0 12.9 0.00 0.00 0.00 56 1015.1
20260507131835 12 320 6.4 8.0 0.00 0.00 0.00 59 1014.9
20260507131331 12 348 3.2 8.0 0.00 0.00 0.00 59 1015.1
20260507130828 12 101 4.8 8.0 0.00 0.00 0.00 58 1014.8
20260507130325 12 60 3.2 4.8 0.00 0.00 0.00 59 1015.0
20260507125824 12 137 4.8 11.3 0.00 0.00 0.00 59 1014.7
20260507125321 12 81 8.0 11.3 0.00 0.00 0.00 60 1014.7
20260507124819 12 64 6.4 11.3 0.00 0.00 0.00 60 1015.0
20260507124315 12 146 0.0 4.8 0.00 0.00 0.00 59 1015.0
20260507123813 12 356 3.2 4.8 0.00 0.00 0.00 58 1014.8
20260507123310 12 247 0.0 3.2 0.00 0.00 0.00 59 1014.7
20260507122806 12 352 4.8 4.8 0.00 0.00 0.00 60 1015.0
20260507122306 11 52 3.2 3.2 0.00 0.00 0.00 59 1015.0
20260507121758 11 275 4.8 8.0 0.00 0.00 0.00 59 1014.9
20260507121254 11 107 1.6 8.0 0.00 0.00 0.00 60 1014.6
20260507120750 11 1 4.8 8.0 0.00 0.00 0.00 61 1014.9
20260507120247 11 150 0.0 11.3 0.00 0.00 0.00 62 1014.5
20260507115743 11 61 1.6 4.8 0.00 0.00 0.00 62 1014.6
20260507115239 11 34 3.2 11.3 0.00 0.00 0.00 61 1014.7
20260507114734 11 282 0.0 3.2 0.00 0.00 0.00 63 1014.8
20260507114232 11 180 0.0 3.2 0.00 0.00 0.00 62 1014.3
20260507113730 11 43 6.4 11.3 0.00 0.00 0.00 62 1014.5
20260507113226 12 165 0.0 4.8 0.00 0.00 0.00 64 1014.5
20260507112724 12 75 1.6 3.2 0.00 0.00 0.00 66 1014.3
20260507112221 12 253 1.6 4.8 0.00 0.00 0.00 66 1014.4
20260507111718 12 157 3.2 11.3 0.00 0.00 0.00 66 1014.2
20260507111210 12 4 3.2 8.0 0.00 0.00 0.00 67 1014.2
20260507110705 12 92 8.0 16.1 0.00 0.00 0.00 67 1013.9
20260507110202 12 96 0.0 11.3 0.00 0.00 0.00 69 1013.9
20260507105659 12 76 1.6 8.0 0.00 0.00 0.00 70 1014.0
20260507105155 12 356 3.2 4.8 0.00 0.00 0.00 70 1014.2
20260507104653 12 133 0.0 3.2 0.00 0.00 0.00 70 1014.2
20260507104149 12 122 0.0 4.8 0.00 0.00 0.00 69 1013.8
20260507103645 12 131 0.0 3.2 0.00 0.00 0.00 69 1013.8
20260507103142 12 154 0.0 0.0 0.00 0.00 0.00 69 1013.8
20260507102638 12 135 0.0 4.8 0.00 0.00 0.00 70 1013.9
20260507102134 12 80 1.6 3.2 0.00 0.00 0.00 69 1013.8
20260507101630 12 150 0.0 3.2 0.00 0.00 0.00 69 1013.4
20260507101126 12 129 1.6 3.2 0.00 0.00 0.00 70 1013.6
20260507100624 12 4 3.2 4.8 0.00 0.00 0.00 69 1013.7
20260507100122 12 2 1.6 4.8 0.00 0.00 0.00 70 1013.4
20260507095620 12 121 1.6 8.0 0.00 0.00 0.00 71 1013.2
20260507095115 12 326 4.8 4.8 0.00 0.00 0.00 70 1013.3
20260507094612 12 190 3.2 4.8 0.00 0.00 0.00 71 1013.4
20260507094109 12 333 4.8 4.8 0.00 0.00 0.00 71 1013.5
20260507093606 12 251 3.2 4.8 0.00 0.00 0.00 71 1013.2
20260507093105 12 300 3.2 4.8 0.00 0.00 0.00 71 1013.3
20260507092601 12 121 1.6 4.8 0.00 0.00 0.00 71 1013.4
20260507092058 12 8 3.2 8.0 0.00 0.00 0.00 72 1013.3
20260507091555 12 264 3.2 3.2 0.00 0.00 0.00 72 1013.2
20260507091051 12 43 6.4 8.0 0.00 0.00 0.00 71 1013.4
20260507090546 12 1 1.6 4.8 0.00 0.00 0.00 71 1013.1
20260507090044 12 71 4.8 4.8 0.00 0.00 0.00 71 1013.0
20260507085541 12 309 1.6 4.8 0.00 0.00 0.00 72 1012.9
20260507085037 12 340 1.6 3.2 0.00 0.00 0.00 73 1013.3
20260507084534 12 192 3.2 3.2 0.00 0.00 0.00 73 1013.2
20260507084031 12 235 0.0 3.2 0.00 0.00 0.00 74 1013.4
20260507083527 12 274 0.0 3.2 0.00 0.00 0.00 76 1013.3
20260507083025 12 286 0.0 0.0 0.00 0.00 0.00 78 1013.2
20260507082521 12 286 0.0 0.0 0.00 0.00 0.00 77 1013.1
20260507082017 12 286 1.6 3.2 0.00 0.00 0.00 75 1013.3
20260507081513 12 287 0.0 0.0 0.00 0.00 0.00 76 1013.3
20260507081010 12 287 0.0 3.2 0.00 0.00 0.00 76 1013.3
20260507080506 12 287 0.0 0.0 0.00 0.00 0.00 76 1013.3
20260507080002 12 287 0.0 0.0 0.00 0.00 0.00 76 1013.1
20260507075458 12 287 0.0 0.0 0.00 0.00 0.00 76 1013.1
20260507074954 12 287 0.0 0.0 0.00 0.00 0.00 76 1013.0
20260507074451 12 287 0.0 0.0 0.00 0.00 0.00 75 1012.8
20260507073950 12 288 0.0 0.0 0.00 0.00 0.00 74 1012.9
20260507073446 12 288 0.0 0.0 0.00 0.00 0.00 74 1012.9
20260507072942 12 288 0.0 0.0 0.00 0.00 0.00 72 1012.8
20260507072440 12 295 0.0 3.2 0.00 0.00 0.00 72 1012.8
20260507071937 12 297 0.0 0.0 0.00 0.00 0.00 72 1012.5
20260507071434 12 298 0.0 0.0 0.00 0.00 0.00 72 1012.8
20260507070931 12 298 0.0 3.2 0.00 0.00 0.00 71 1012.7
20260507070428 12 299 1.6 3.2 0.00 0.00 0.00 70 1012.7
20260507065925 12 302 0.0 0.0 0.00 0.00 0.00 70 1012.7
20260507065421 12 303 1.6 4.8 0.00 0.00 0.00 70 1013.0
20260507064918 13 317 4.8 4.8 0.00 0.00 0.00 70 1013.0
20260507064417 13 31 1.6 3.2 0.00 0.00 0.00 70 1013.1
20260507063914 13 308 4.8 4.8 0.00 0.00 0.00 70 1012.9
20260507063411 13 164 1.6 4.8 0.00 0.00 0.00 69 1012.9
20260507062908 13 138 1.6 3.2 0.00 0.00 0.00 70 1012.9
20260507062405 13 353 0.0 3.2 0.00 0.00 0.00 70 1013.0
20260507061903 13 347 0.0 3.2 0.00 0.00 0.00 70 1013.3
20260507061401 13 315 0.0 4.8 0.00 0.00 0.00 70 1013.2
20260507060859 13 332 4.8 8.0 0.00 0.00 0.00 70 1013.4
20260507060355 13 300 3.2 4.8 0.00 0.00 0.00 70 1013.5
20260507055852 13 208 0.0 3.2 0.00 0.00 0.00 70 1013.7
20260507055347 13 290 4.8 8.0 0.00 0.00 0.00 70 1013.6
20260507054844 13 275 4.8 4.8 0.00 0.00 0.00 70 1013.6
20260507054340 13 187 0.0 4.8 0.00 0.00 0.00 70 1013.4
20260507053838 13 352 4.8 12.9 0.00 0.00 0.00 70 1013.6
20260507053335 13 233 4.8 8.0 0.00 0.00 0.00 70 1013.5
20260507052834 13 325 6.4 8.0 0.00 0.00 0.00 70 1013.3
20260507052330 13 304 4.8 4.8 0.00 0.00 0.00 70 1013.3
20260507051828 13 190 1.6 8.0 0.00 0.00 0.00 70 1013.1
20260507051326 13 309 3.2 11.3 0.00 0.00 0.00 71 1012.9
20260507050822 13 344 6.4 11.3 0.00 0.00 0.00 71 1012.9
20260507050318 13 0 11.3 17.7 0.00 0.00 0.00 71 1013.0
20260507045816 13 27 4.8 16.1 0.00 0.00 0.00 72 1013.1
20260507045312 13 307 8.0 16.1 0.00 0.00 0.00 72 1013.2
20260507044809 13 340 20.9 30.6 0.00 0.00 0.00 72 1013.0
20260507044306 13 36 6.4 20.9 0.00 0.00 0.00 72 1013.0
20260507043802 14 303 4.8 11.3 0.00 0.00 0.00 73 1012.7
20260507043258 14 322 6.4 8.0 0.00 0.00 0.00 73 1012.5
20260507042754 14 185 1.6 4.8 0.00 0.00 0.00 73 1012.7
20260507042249 14 84 1.6 17.7 0.00 0.00 0.00 73 1012.1
20260507041747 14 95 3.2 8.0 0.00 0.00 0.00 73 1011.9
20260507041243 14 216 4.8 17.7 0.00 0.00 0.00 73 1012.8
20260507040741 15 300 3.2 11.3 0.00 0.00 0.00 73 1012.8
20260507040237 15 113 1.6 4.8 0.00 0.00 0.00 73 1012.5
20260507035733 15 109 3.2 4.8 0.00 0.36 0.36 73 1012.8
20260507035228 15 355 3.2 11.3 0.00 0.36 0.36 73 1012.2
20260507034727 15 316 0.0 4.8 0.00 0.36 0.36 72 1012.0
20260507034223 15 150 3.2 4.8 0.00 0.36 0.36 71 1012.4
20260507033722 15 90 4.8 4.8 0.00 0.36 0.36 72 1012.5
20260507033219 15 40 0.0 4.8 0.00 0.36 0.36 72 1012.7
20260507032716 15 60 4.8 8.0 0.00 0.36 0.36 71 1012.7
20260507032212 15 1 9.7 12.9 0.00 0.36 0.36 72 1012.6
20260507031709 15 83 6.4 12.9 0.00 0.36 0.36 71 1012.8
20260507031205 15 47 1.6 4.8 0.00 0.36 0.36 72 1012.5
20260507030702 15 341 0.0 4.8 0.00 0.36 0.36 72 1012.0
20260507030200 15 66 0.0 4.8 0.00 0.36 0.36 71 1011.9
20260507025657 15 64 8.0 11.3 0.00 0.36 0.36 71 1012.1
20260507025153 15 82 8.0 17.7 0.00 0.36 0.36 71 1012.2
20260507024652 15 5 9.7 12.9 0.00 0.36 0.36 71 1012.6
20260507024149 15 335 8.0 11.3 0.00 0.36 0.36 71 1012.6
20260507023644 16 350 11.3 20.9 0.00 0.36 0.36 71 1012.5
20260507023142 16 144 4.8 16.1 0.00 0.36 0.36 71 1012.4
20260507022639 16 3 6.4 11.3 0.00 0.36 0.36 71 1012.3
20260507022134 16 246 3.2 12.9 0.00 0.36 0.36 71 1012.0
20260507021631 16 328 8.0 11.3 0.00 0.36 0.36 71 1012.0
20260507021126 16 165 4.8 8.0 0.00 0.36 0.36 71 1011.6
20260507020625 16 84 3.2 4.8 0.00 0.36 0.36 71 1011.4
20260507020121 16 120 3.2 8.0 0.00 0.36 0.36 71 1011.9
20260507015620 16 153 0.0 4.8 0.00 0.36 0.36 70 1011.6
20260507015116 16 90 1.6 8.0 0.00 0.36 0.36 71 1011.7
20260507014613 16 40 3.2 8.0 0.00 0.36 0.36 70 1011.8
20260507014109 16 69 4.8 11.3 0.00 0.36 0.36 70 1011.7
20260507013606 16 39 3.2 16.1 0.00 0.36 0.36 72 1011.6
20260507013103 16 332 4.8 11.3 0.00 0.36 0.36 72 1011.8
20260507012600 16 71 3.2 4.8 0.00 0.36 0.36 72 1011.5
20260507012055 17 103 1.6 8.0 0.00 0.36 0.36 72 1011.4
20260507011554 17 78 4.8 11.3 0.00 0.36 0.36 72 1011.4
20260507011049 17 110 4.8 8.0 0.00 0.36 0.36 72 1011.1
20260507010544 17 81 4.8 8.0 0.00 0.36 0.36 73 1011.1
20260507010041 17 74 1.6 8.0 0.00 0.36 0.36 73 1011.0
20260507005538 17 168 0.0 3.2 0.00 0.36 0.36 74 1011.2
20260507005034 17 90 0.0 3.2 0.00 0.36 0.36 74 1011.3
20260507004531 17 127 8.0 11.3 0.00 0.36 0.36 73 1011.3
20260507004023 17 116 4.8 8.0 0.00 0.36 0.36 74 1011.3
20260507003518 17 59 1.6 8.0 0.00 0.36 0.36 74 1011.2
20260507003014 17 121 1.6 12.9 0.00 0.36 0.36 74 1011.0
20260507002511 17 260 1.6 4.8 0.00 0.36 0.36 74 1011.1
20260507002007 17 77 4.8 11.3 0.00 0.36 0.36 75 1011.0
20260507001503 17 75 4.8 8.0 0.00 0.36 0.36 75 1011.1
20260507001001 17 153 0.0 16.1 0.00 0.36 0.36 75 1011.0
20260507000456 17 138 0.0 8.0 0.00 0.36 0.36 75 1010.9
20260506235952 17 105 6.4 12.9 0.00 0.36 0.36 76 1010.8
20260506235450 18 68 1.6 8.0 0.00 0.36 0.36 77 1010.8
20260506234946 18 108 1.6 8.0 0.00 0.36 0.36 77 1010.7
20260506234443 18 74 1.6 12.9 0.00 0.36 0.36 77 1010.5
20260506233940 18 86 4.8 8.0 0.00 0.36 0.36 76 1010.6
20260506233437 19 48 4.8 8.0 0.00 0.36 0.36 74 1010.4
20260506232933 19 86 4.8 16.1 0.00 0.36 0.36 73 1010.2
20260506232430 20 326 9.7 12.9 0.00 0.36 0.36 72 1010.1
20260506231926 20 319 4.8 8.0 0.00 0.36 0.36 71 1010.1
20260506231423 20 351 1.6 11.3 0.00 0.36 0.36 72 1009.9
20260506230920 20 57 3.2 8.0 0.00 0.36 0.36 71 1010.1
20260506230417 20 335 11.3 12.9 0.00 0.36 0.36 71 1009.8
20260506225914 20 349 4.8 12.9 0.00 0.36 0.36 71 1009.9
20260506225411 20 11 3.2 8.0 0.00 0.36 0.36 70 1009.9
20260506224908 20 348 9.7 12.9 0.00 0.36 0.36 71 1009.6
20260506224405 21 299 6.4 12.9 0.00 0.36 0.36 73 1009.6
20260506223901 21 218 1.6 3.2 0.00 0.36 0.36 74 1009.4
20260506223356 21 132 1.6 3.2 0.00 0.36 0.36 74 1009.5
20260506222854 21 18 4.8 8.0 0.00 0.36 0.36 73 1009.4
20260506222350 21 68 3.2 8.0 0.00 0.36 0.36 72 1009.5
20260506221848 21 177 3.2 4.8 0.00 0.36 0.36 71 1009.0
20260506221345 21 156 3.2 4.8 0.00 0.36 0.36 71 1008.9
20260506220842 21 117 3.2 4.8 0.00 0.36 0.36 70 1009.0
20260506220337 22 132 3.2 3.2 0.00 0.36 0.36 69 1008.9
20260506215834 22 155 0.0 3.2 0.00 0.36 0.36 69 1008.8
20260506215330 22 88 6.4 12.9 0.00 0.36 0.36 68 1008.8
20260506214826 22 336 4.8 8.0 0.00 0.36 0.36 68 1008.7
20260506214323 22 110 3.2 8.0 0.00 0.36 0.36 68 1008.4
20260506213822 22 63 4.8 8.0 0.00 0.36 0.36 67 1008.8